Wind_Speed
46 51 50 24 14 9 1 4 8 10 9 12 12 10 6 4 5 7 9 10 12 13 13 15 18 20 16 13 16 19 20 18 8 14 16 20 19 18 24 24 18 20 18
23 17 24 35 16 4 2 5 7 8 9 8 7 5 3 5 5 7 8 10 10 12 15 16 18 16 14 20 21 23 23 22 12 14 16 11 15 21 27 20 19 19 16
11 5 17 23 19 6 9 9 6 8 7 7 5 5 4 4 5 6 7 9 10 12 13 18 19 19 21 23 24 23 24 23 23 14 14 9 12 20 18 19 18 19 17
6 3 4 6 13 10 12 11 10 8 6 6 4 3 4 4 6 6 8 9 12 15 18 18 15 15 16 14 16 19 20 20 18 16 13 15 18 18 16 17 16 16 17
9 0 9 9 11 12 11 11 10 8 4 3 2 2 4 6 7 9 11 14 15 16 13 11 11 12 11 13 15 15 17 16 18 18 19 18 10 15 9 12 13 13 16
11 2 8 8 8 8 11 10 7 5 3 2 2 4 7 8 9 12 14 13 10 8 10 14 17 19 17 16 17 13 12 14 14 13 14 10 8 8 13 15 13 3 2
7 4 7 8 7 6 6 4 4 1 2 2 4 5 6 10 14 14 11 10 11 13 15 17 19 15 15 13 19 20 18 15 13 15 13 12 11 11 13 15 13 7 4
1 7 8 7 4 4 3 3 1 2 3 4 5 5 6 9 11 12 13 14 16 17 18 17 13 14 13 14 15 15 15 14 14 14 14 14 14 15 16 15 14 6 10
4 5 7 5 4 3 2 1 1 4 4 4 5 5 6 8 10 14 18 20 21 18 17 12 14 14 16 16 13 14 14 17 17 16 15 15 14 13 13 12 11 3 3
2 5 5 4 4 2 1 5 4 4 4 4 5 6 8 11 15 19 21 20 18 15 14 14 15 14 16 16 11 13 14 16 19 18 17 11 8 7 6 6 4 2 3
5 5 4 5 5 6 7 5 4 3 4 5 7 8 10 14 17 20 18 15 13 13 13 13 13 14 15 13 13 13 15 16 15 15 13 9 5 3 2 2 3 3 4
5 5 5 9 8 7 6 5 5 4 7 9 9 9 13 15 18 18 17 16 14 14 14 16 15 14 13 13 13 15 15 14 15 12 9 11 13 11 8 5 7 10 10
6 6 9 10 9 7 5 5 10 12 13 11 11 13 15 16 16 18 17 17 15 15 13 13 13 12 12 12 13 15 13 15 16 13 12 11 10 9 6 7 2 2 8
6 8 8 8 8 10 14 15 16 16 14 13 12 12 12 12 15 18 19 17 15 14 13 13 12 12 12 12 12 13 13 13 13 14 11 9 10 9 9 8 4 7 7
12 8 6 6 9 15 18 17 18 17 14 13 12 11 11 11 15 16 15 14 15 15 13 14 16 16 15 15 13 12 13 14 14 13 10 11 12 15 13 11 9 10 8
14 9 8 5 8 14 22 22 19 17 17 16 14 13 10 11 13 14 15 14 17 18 15 14 14 15 13 13 13 12 14 13 11 10 9 11 14 14 14 14 13 12 12
13 11 8 9 11 15 15 14 11 9 11 12 13 12 13 12 13 15 15 18 20 21 17 16 14 14 13 13 12 12 13 12 9 7 9 11 12 13 13 16 15 15 15
12 8 7 11 13 13 12 12 10 8 9 11 12 13 13 13 15 18 19 19 18 20 17 16 16 16 16 15 15 15 13 11 8 8 11 12 11 10 11 14 13 14 15
12 14 14 16 16 13 12 11 10 11 10 9 11 13 14 15 19 19 20 19 17 16 16 17 17 18 18 16 16 13 14 13 12 12 12 10 9 9 12 13 18 19 19
15 15 20 21 17 13 10 10 11 12 10 9 10 11 14 17 19 20 20 20 17 16 16 18 18 18 18 15 17 18 18 17 17 15 12 9 7 8 12 18 18 17 16
21 21 21 19 15 12 11 12 12 11 10 9 9 11 14 17 17 18 19 18 16 15 15 17 18 18 16 13 14 16 17 16 14 13 12 12 13 19 20 17 17 19 19
25 23 20 17 15 13 13 13 12 11 10 8 9 12 14 15 15 17 17 17 15 14 14 14 14 14 14 14 16 18 21 19 16 16 16 17 18 18 18 21 22 21 20
25 23 19 17 16 15 14 13 11 10 9 9 10 13 13 12 14 16 18 18 17 17 15 14 13 13 15 16 18 19 19 17 16 16 17 17 16 17 19 20 21 21 17
24 22 20 18 18 17 14 13 10 10 9 9 10 12 11 10 13 16 19 21 20 19 18 16 14 13 13 15 19 21 18 16 17 18 17 18 18 19 20 18 16 13 12
23 22 20 19 18 18 17 13 10 9 10 10 10 11 10 10 12 15 19 21 21 22 20 18 16 16 15 15 18 19 18 18 19 17 17 17 17 16 16 15 14 11 11
23 22 20 19 18 17 14 11 11 10 11 10 9 10 10 10 11 14 17 20 22 23 23 20 18 15 14 16 16 16 16 15 15 16 17 16 15 14 12 12 11 12 12
Wind_Direction
62 33 8 5 0 347 259 171 163 170 167 168 176 177 186 208 248 270 277 282 281 285 288 284 278 281 272 273 284 283 284 278 264 283 281 290 298 306 310 308 299 304 305
97 68 333 311 303 178 28 57 79 121 148 162 171 149 201 240 260 274 281 285 286 292 296 295 296 287 267 284 278 278 279 281 264 274 281 279 298 314 317 297 301 295 301
68 336 219 268 250 168 128 135 151 162 156 157 162 200 231 264 286 296 306 312 304 299 297 294 289 281 278 290 299 297 291 288 286 262 279 286 300 309 297 290 298 295 294
56 95 202 185 203 179 154 157 168 169 168 175 188 231 271 310 325 331 330 314 307 299 299 302 297 302 307 310 311 308 311 302 293 280 270 277 286 297 277 278 284 291 296
356 289 108 181 181 165 160 164 167 179 184 208 237 290 324 334 347 333 318 310 310 306 312 314 318 321 313 306 316 316 314 306 291 279 275 272 270 278 266 285 266 285 296
12 64 112 162 167 181 165 171 155 177 203 240 303 338 346 346 328 321 318 323 332 348 343 332 325 324 322 318 316 326 318 317 312 311 300 254 252 296 308 293 254 263 296
354 139 134 162 182 195 181 156 159 198 313 13 351 359 358 354 342 342 4 15 5 353 342 336 332 333 335 337 330 325 323 321 315 305 298 301 297 297 291 300 298 259 259
242 153 162 164 195 193 186 197 238 7 39 25 20 359 14 40 42 26 13 359 346 345 347 348 350 341 342 340 334 327 328 326 325 321 320 311 304 298 276 269 279 267 300
211 181 177 170 196 193 212 224 58 60 42 41 19 31 38 43 17 2 355 346 343 345 353 5 356 347 341 336 328 323 328 333 330 323 318 309 299 297 280 264 244 247 291
275 203 217 201 212 221 108 105 71 67 73 58 60 59 52 29 9 359 351 347 342 351 356 353 351 346 342 345 344 337 332 329 330 330 333 332 328 324 19 214 204 248 294
273 233 221 204 183 146 121 89 92 86 76 93 82 62 33 14 4 1 5 357 352 349 346 340 342 346 354 356 353 349 341 332 328 334 338 348 2 2 335 229 223 266 293
245 218 150 121 120 106 96 95 79 84 97 91 71 36 16 4 4 10 7 4 1 350 337 340 345 344 353 2 4 359 355 352 352 344 6 54 38 25 12 342 300 292 263
203 139 112 116 97 88 87 88 82 84 86 73 41 16 1 3 10 4 356 356 357 345 343 344 347 352 360 3 4 2 5 4 7 25 48 35 17 356 338 341 10 319 286
165 131 130 98 86 89 92 91 89 85 74 51 25 11 12 15 360 355 355 358 359 358 2 8 9 14 15 10 9 13 19 11 20 33 37 22 6 15 9 20 11 335 335
148 135 119 124 120 107 96 95 92 78 62 50 38 33 21 6 359 2 3 7 11 8 13 15 17 16 13 11 14 14 21 26 30 32 23 16 17 20 22 23 25 30 53
138 114 107 106 144 124 117 105 90 74 59 54 49 40 32 19 12 14 19 22 24 24 17 8 8 12 10 9 13 16 23 26 23 19 20 21 18 18 21 36 38 73 65
129 112 138 168 152 133 123 114 110 74 60 52 45 38 38 29 19 21 26 32 31 27 16 13 11 12 15 22 16 16 19 28 29 22 26 22 20 27 37 34 54 73 75
105 112 126 178 140 134 118 104 88 80 68 46 41 41 41 35 33 33 36 35 20 25 29 25 22 30 32 27 26 22 29 42 48 47 24 26 31 28 27 29 67 73 85
114 108 128 142 129 120 107 91 84 82 75 56 39 42 40 46 42 43 39 32 23 25 30 33 32 36 36 36 37 33 30 30 28 27 32 36 32 28 29 77 85 84 87
125 138 137 124 118 108 91 89 86 77 69 54 40 33 40 46 40 32 31 32 32 36 39 35 38 38 37 36 31 31 27 27 26 22 30 41 38 44 79 94 87 82 81
136 133 124 118 106 96 92 89 83 75 63 55 50 49 55 57 47 38 38 34 35 37 39 39 31 32 34 35 28 18 18 24 38 46 55 64 77 90 97 94 93 95 91
137 128 119 108 100 96 92 84 76 68 60 54 62 61 63 60 43 37 34 35 31 28 28 28 31 28 24 15 11 16 27 42 54 61 69 89 98 91 91 96 97 99 97
133 121 110 99 96 92 84 76 67 62 59 60 73 67 63 53 39 35 30 33 31 31 29 27 29 28 25 24 23 26 36 53 64 72 85 92 86 94 92 98 102 109 98
125 116 106 100 90 83 77 69 63 60 61 64 76 69 63 52 40 34 33 34 32 31 29 31 34 34 41 37 35 43 55 70 81 84 90 94 93 97 103 102 106 109 95
122 113 110 101 90 80 70 68 66 65 65 67 77 71 62 54 45 36 34 35 33 33 41 46 48 52 53 47 45 53 65 83 87 79 85 89 93 95 94 99 100 99 98
117 117 111 100 87 73 65 62 61 62 64 69 76 71 62 51 46 39 36 36 35 36 44 53 56 59 57 56 56 61 72 90 84 82 82 81 85 88 86 80 87 93 101
Height
753 769 779 769 758 759 756 756 755 755 758 763 766 767 772 774 773 772 771 771 771 770 769 767 765 763 761 761 759 757 755 753 752 747 745 743 741 741 740 737 735 733 731
740 734 760 771 765 750 761 761 763 763 763 765 769 768 770 770 769 770 768 768 768 766 764 763 760 759 758 756 753 750 748 746 746 742 740 737 736 736 734 732 730 729 727
739 739 740 744 756 755 757 763 764 767 766 767 767 768 769 769 768 768 767 766 765 762 759 758 755 754 752 750 749 747 744 741 738 736 736 733 732 731 729 727 726 724 723
746 749 743 740 750 752 751 759 765 768 767 766 767 769 770 769 767 767 764 762 761 760 757 755 753 751 749 746 744 742 740 736 733 732 729 727 726 725 724 723 720 720 718
743 744 741 749 753 753 756 760 763 767 767 768 769 770 769 767 765 763 761 760 757 756 752 751 749 748 745 744 742 738 735 732 730 726 723 721 719 720 719 718 717 717 716
748 752 750 756 756 759 756 760 761 764 765 766 767 767 767 765 762 760 758 756 754 753 750 749 747 744 741 738 736 734 732 728 726 723 719 716 716 717 718 716 714 714 713
750 751 755 756 759 761 761 763 762 763 764 764 765 764 763 762 760 759 756 754 754 752 749 747 744 741 738 734 732 730 727 726 723 720 717 716 714 714 714 714 713 712 712
753 750 754 756 758 760 761 762 762 762 763 763 764 764 761 759 761 760 757 755 754 750 747 745 742 739 736 732 730 728 725 722 720 717 714 713 711 710 710 710 711 710 710
753 753 754 753 757 759 759 760 762 761 762 763 763 762 761 761 760 759 755 754 751 748 745 743 741 737 735 731 727 726 722 720 717 714 712 710 708 706 705 707 707 708 707
757 756 757 756 758 758 758 760 761 761 763 761 763 763 762 761 759 757 754 753 750 746 744 742 740 736 732 729 726 725 721 718 714 711 709 706 705 704 703 703 705 706 706
759 758 758 757 758 759 759 761 762 760 760 764 764 764 762 761 758 757 756 754 751 747 744 741 738 735 731 728 726 724 721 717 714 711 708 705 705 704 704 705 705 706 705
757 756 756 756 757 758 760 760 760 761 762 763 763 764 762 761 760 760 758 755 751 748 744 741 737 733 731 728 726 723 720 717 713 710 708 708 707 706 706 705 704 704 703
755 756 756 757 758 759 759 760 759 760 762 766 765 764 764 763 762 762 759 754 750 747 744 740 736 733 730 728 726 723 720 718 714 712 711 711 710 708 706 704 702 702 701
755 755 758 758 758 759 759 760 761 764 766 766 766 768 766 766 765 763 758 753 749 746 743 739 736 734 731 730 727 724 722 721 718 715 715 714 711 708 706 704 702 701 699
753 756 757 758 761 760 761 765 765 768 769 769 770 770 769 768 767 764 759 754 750 747 743 740 736 733 732 730 728 726 724 722 720 719 717 715 712 709 706 704 703 701 700
754 757 762 766 765 768 765 768 770 771 771 772 773 772 771 770 768 764 759 755 751 746 743 741 738 736 734 733 731 728 725 724 723 721 719 717 714 711 709 706 705 704 703
756 760 763 766 769 771 771 769 771 773 774 774 775 774 772 771 768 764 759 756 752 748 746 743 741 739 737 735 732 730 727 726 725 723 721 719 716 714 712 710 708 708 708
760 763 763 767 771 775 774 772 773 773 775 777 777 775 774 772 768 764 760 757 754 751 750 747 745 742 740 737 734 732 730 728 726 724 722 721 719 718 715 714 713 713 713
760 763 764 772 774 776 776 775 775 776 777 779 779 778 775 773 769 766 763 760 758 756 754 751 748 746 743 741 738 735 733 730 728 726 725 723 722 720 719 718 718 718 719
762 765 769 772 775 777 777 777 777 777 779 780 780 780 777 774 771 768 766 764 762 760 758 754 752 749 747 744 741 738 735 732 729 728 727 725 724 723 722 722 723 724 725
766 771 773 776 778 779 779 778 778 779 781 782 782 781 779 776 775 772 770 768 765 763 760 758 755 753 750 746 743 740 737 734 732 730 728 727 727 726 727 728 729 729 730
771 774 777 778 779 780 781 780 781 782 783 784 784 782 781 778 777 775 773 770 768 765 763 760 758 755 752 749 745 742 739 736 735 734 733 733 733 733 733 733 734 735 736
772 775 779 780 781 782 782 783 784 785 786 786 785 784 782 781 780 779 776 773 770 767 765 763 761 758 755 751 749 746 743 741 741 739 739 739 739 739 739 740 741 742 743
774 778 781 784 784 785 786 787 788 789 789 788 787 786 785 784 784 782 779 776 773 770 767 765 763 761 759 756 753 750 748 746 746 745 746 745 745 745 746 746 747 748 748
778 781 786 788 789 789 789 791 791 791 791 790 790 789 788 787 787 785 782 779 776 773 770 767 766 764 762 760 758 756 754 753 753 752 752 751 750 751 751 751 752 752 752
782 787 790 791 792 793 794 794 794 794 793 793 793 793 792 790 789 787 785 782 779 777 774 771 769 768 766 764 763 762 760 759 759 758 758 757 756 756 756 755 755 755 756